Location: Carri�res
(48.9069°N, 2.1792°E)
Time: 13:45:19
(UTC+00:00)

Cosmos 1606 Rocket - Pass Details

Date: 17 January 2021
Orbit: 604 x 631 km, 82.5° (Epoch: 26 February)

Event Time Altitude Azimuth Distance (km) Brightness Sun altitude
Rises 17:36:42 0° 353° (N) 2,885 6.9 -11.4°
Reaches altitude 10° 17:38:58 10° 357° (N) 1,979 6.0 -11.8°
Maximum altitude 17:43:17 58° 77° (ENE) 719 3.6 -12.5°
Drops below altitude 10° 17:47:37 10° 158° (SSE) 1,980 6.1 -13.2°
Sets 17:49:52 0° 162° (SSE) 2,885 7.0 -13.5°
